Flag for Japan Weather past 2 weeks in Fukuoka, Japan

Now
46 °F

Partly sunny.


Feels Like: 41 °F
Forecast: 43 / 51 °F
Wind: 12 mph from Northeast

Location: Fukuoka Airport

Current Time: Mar 5, 2015 at 6:10:47 PM

Latest Report: Mar 5, 2015 at 5:30 PM


Visibility: N/A

Pressure: 30.15 "Hg

Humidity: 43%

Dew point: 25 °F

Location of FukuokaLocation

Historic Weather in Fukuoka — Graph

°F

Fukuoka temperature yesterday

Maximum temperature yesterday: 48 °F (at 12:00 AM)
Minimum temperature yesterday: 39 °F (at 11:00 PM)
Average temperature yesterday: 44 °F

Past Weeks' High & Low Weather Summary

 TemperatureHumidityPressure
High59 °F (Feb 22, 12:00 PM)100% (Feb 23, 1:00 AM)30.33 "Hg (Feb 23, 1:00 AM)
Low36 °F (Mar 5, 3:30 AM)29% (Feb 27, 2:30 AM)29.74 "Hg (Mar 3, 3:00 PM)
Average46 °F68%30.09 "Hg
* Reported Feb 18 5:00 PM — Mar 5 5:00 PM, Fukuoka, Weather by CustomWeather, © 2015

Note: Actual official high and low records may vary slightly from our data, if they occured in-between our weather recording intervals... More about our weather records

Advertising

Fukuoka weather history for previous 24 hours

 ConditionsComfort  
Time TempWeatherWind HumidityBarometerVisibility
5:00 PM
Thu, Mar 5
46 °FPartly sunny.14 mph43%30.18 "HgN/A
4:30 PM46 °FPartly sunny.13 mph43%30.18 "HgN/A
4:00 PM48 °FPartly sunny.14 mph43%30.18 "HgN/A
3:30 PM48 °FPartly sunny.16 mph43%30.18 "HgN/A
3:00 PM48 °FBroken clouds.16 mph43%30.18 "HgN/A
2:30 PM48 °FPartly sunny.12 mph43%30.18 "HgN/A
2:00 PM48 °FPartly sunny.10 mph46%30.18 "HgN/A
1:30 PM48 °FPartly sunny.10 mph46%30.18 "HgN/A
12:30 PM48 °FPartly sunny.9 mph46%30.21 "HgN/A
12:00 PM46 °FPartly sunny.6 mph50%30.21 "HgN/A
11:00 AM46 °FPartly sunny.10 mph46%30.21 "HgN/A
10:30 AM46 °FPartly sunny.8 mph46%30.21 "HgN/A
10:00 AM45 °FBroken clouds.6 mph49%30.21 "HgN/A
9:30 AM45 °FBroken clouds.6 mph46%30.21 "HgN/A
9:00 AM45 °FPartly sunny.5 mph49%30.21 "HgN/A
8:30 AM43 °FBroken clouds.5 mph53%30.21 "HgN/A
8:00 AM39 °FPartly sunny.3 mph70%30.18 "HgN/A
7:30 AM39 °FPartly sunny.3 mph70%30.18 "HgN/A
7:00 AM36 °FPartly sunny.6 mph81%30.18 "HgN/A
6:00 AM36 °FPassing clouds.No wind81%30.18 "HgN/A
5:30 AM37 °FPassing clouds.1 mph70%30.18 "HgN/A
5:00 AM37 °FPassing clouds.3 mph70%30.15 "HgN/A
4:30 AM37 °FPassing clouds.3 mph70%30.15 "HgN/A
4:00 AM37 °FPassing clouds.3 mph70%30.15 "HgN/A
3:30 AM36 °FPassing clouds.3 mph75%30.15 "HgN/A
3:00 AM37 °FPassing clouds.2 mph70%30.15 "HgN/A
2:30 AM37 °FClear.2 mph70%30.15 "Hg10 mi
2:00 AM37 °FPartly cloudy.5 mph70%30.15 "HgN/A
1:30 AM39 °FPartly cloudy.5 mph65%30.15 "HgN/A
1:00 AM39 °FPassing clouds.5 mph61%30.15 "HgN/A
12:30 AM39 °FPassing clouds.3 mph65%30.15 "HgN/A
12:00 AM39 °FPartly cloudy.5 mph65%30.15 "HgN/A
11:30 PM
Wed, Mar 4
39 °FPartly cloudy.6 mph61%30.15 "HgN/A
11:00 PM39 °FPassing clouds.6 mph65%30.15 "HgN/A
10:30 PM41 °FPartly cloudy.3 mph53%30.15 "HgN/A
10:00 PM43 °FPartly cloudy.3 mph49%30.15 "HgN/A
9:30 PM43 °FPassing clouds.5 mph46%30.12 "HgN/A
9:00 PM43 °FPassing clouds.5 mph46%30.12 "HgN/A
8:30 PM43 °FPassing clouds.5 mph46%30.12 "HgN/A
8:00 PM43 °FPassing clouds.5 mph46%30.12 "HgN/A
7:30 PM43 °FPartly cloudy.7 mph49%30.12 "HgN/A
7:00 PM43 °FPartly cloudy.9 mph49%30.12 "HgN/A
6:30 PM43 °FPassing clouds.8 mph53%30.09 "HgN/A
6:00 PM43 °FPartly sunny.9 mph53%30.09 "HgN/A
Weather by CustomWeather, © 2015

See weather overviewHow to use our weather pages